When you browse on this site, cookies collect data to enhance your experience and personalize the content and advertising you see.
Visit our Privacy Policy to learn more. By continuing to use the site, you agree to this use of cookies and data.
  • In Deutschland
  • Länderverzeichnis
  • Für 7 Tage
  • Wassertemperatur
  • Satellitenkarten
  • Wetterkarte
  • Widgets
  • user-avatar
    Anmelden

    Stündliche Wetter Isla Magdalena

    Heute, 17 Februar, Sonntag

    Zeit Temperatur Niederschläge Wind Luftdruck Luftfeuchtigkeit
    00:00 +14°C° 0.1 mm 2 m/S 743 mmHg 99%
    01:00 +14°C° 0.1 mm 2 m/S 743 mmHg 99%
    02:00 +14°C° 0.1 mm 2 m/S 743 mmHg 99%
    03:00 +14°C° 0.1 mm 2 m/S 742 mmHg 99%
    04:00 +14°C° 0.1 mm 1 m/S 742 mmHg 99%
    05:00 +14°C° 0.1 mm 2 m/S 742 mmHg 98%
    06:00 +14°C° 0.1 mm 2 m/S 741 mmHg 98%
    07:00 +15°C° 0.1 mm 2 m/S 741 mmHg 97%
    08:00 +15°C° 0.1 mm 2 m/S 741 mmHg 93%
    09:00 +16°C° 0.1 mm 2 m/S 741 mmHg 88%
    10:00 +17°C° 0.1 mm 2 m/S 740 mmHg 84%
    11:00 +18°C° 0 mm 3 m/S 740 mmHg 77%
    12:00 +19°C° 0 mm 3 m/S 739 mmHg 69%
    13:00 +20°C° 0 mm 3 m/S 739 mmHg 62%
    14:00 +20°C° 0 mm 4 m/S 739 mmHg 63%
    15:00 +20°C° 0 mm 4 m/S 738 mmHg 63%
    16:00 +20°C° 0 mm 4 m/S 738 mmHg 64%
    17:00 +18°C° 0.1 mm 4 m/S 738 mmHg 74%
    18:00 +16°C° 0.1 mm 3 m/S 737 mmHg 84%
    19:00 +14°C° 0.1 mm 3 m/S 737 mmHg 95%
    20:00 +14°C° 0.1 mm 4 m/S 737 mmHg 96%
    21:00 +14°C° 0.1 mm 4 m/S 736 mmHg 97%
    22:00 +13°C° 0.1 mm 5 m/S 736 mmHg 98%
    23:00 +13°C° 1.9 mm 6 m/S 735 mmHg 98%

    Morgen, 18 Februar, Montag

    Zeit Temperatur Niederschläge Wind Luftdruck Luftfeuchtigkeit
    00:00 +14°C° 1.9 mm 7 m/S 734 mmHg 99%
    01:00 +14°C° 1.9 mm 7 m/S 734 mmHg 99%
    02:00 +14°C° 7.7 mm 7 m/S 734 mmHg 99%
    03:00 +14°C° 7.7 mm 7 m/S 734 mmHg 99%
    04:00 +14°C° 7.7 mm 6 m/S 734 mmHg 99%
    05:00 +13°C° 1.6 mm 5 m/S 735 mmHg 98%
    06:00 +10°C° 1.6 mm 5 m/S 736 mmHg 96%
    07:00 +10°C° 1.6 mm 4 m/S 736 mmHg 95%
    08:00 +11°C° 0 mm 3 m/S 737 mmHg 86%
    09:00 +11°C° 0 mm 3 m/S 738 mmHg 78%
    10:00 +11°C° 0 mm 3 m/S 739 mmHg 69%
    11:00 +13°C° 0 mm 3 m/S 739 mmHg 59%
    12:00 +14°C° 0 mm 3 m/S 740 mmHg 49%
    13:00 +16°C° 0 mm 3 m/S 740 mmHg 39%
    14:00 +16°C° 0 mm 2 m/S 740 mmHg 40%
    15:00 +16°C° 0 mm 2 m/S 740 mmHg 41%
    16:00 +16°C° 0 mm 2 m/S 740 mmHg 41%
    17:00 +14°C° 0 mm 2 m/S 740 mmHg 50%
    18:00 +12°C° 0 mm 2 m/S 741 mmHg 59%
    19:00 +10°C° 0 mm 2 m/S 741 mmHg 68%
    20:00 +10°C° 0 mm 1 m/S 741 mmHg 75%
    21:00 +8°C° 0 mm 1 m/S 741 mmHg 81%
    22:00 +7°C° 0 mm 1 m/S 741 mmHg 88%
    23:00 +7°C° 0 mm 1 m/S 741 mmHg 90%

    übermorgen, 19 Februar, Dienstag

    Zeit Temperatur Niederschläge Wind Luftdruck Luftfeuchtigkeit
    00:00 +7°C° 0 mm 1 m/S 740 mmHg 91%
    01:00 +6°C° 0 mm 1 m/S 740 mmHg 93%
    02:00 +5°C° 0 mm 0 m/S 740 mmHg 93%
    03:00 +5°C° 0 mm 0 m/S 739 mmHg 93%
    04:00 +5°C° 0 mm 0 m/S 739 mmHg 93%
    05:00 +7°C° 0 mm 1 m/S 739 mmHg 88%
    06:00 +8°C° 0 mm 1 m/S 739 mmHg 83%
    07:00 +9°C° 0 mm 2 m/S 739 mmHg 78%
    08:00 +9°C° 0 mm 2 m/S 738 mmHg 74%
    09:00 +10°C° 0 mm 3 m/S 738 mmHg 70%
    10:00 +11°C° 0 mm 4 m/S 738 mmHg 67%
    11:00 +10°C° 0.6 mm 4 m/S 738 mmHg 75%
    12:00 +10°C° 0.6 mm 4 m/S 737 mmHg 84%
    13:00 +8°C° 0.6 mm 4 m/S 737 mmHg 92%
    14:00 +8°C° 2.4 mm 5 m/S 737 mmHg 94%
    15:00 +9°C° 2.4 mm 5 m/S 737 mmHg 96%
    16:00 +9°C° 2.4 mm 6 m/S 737 mmHg 98%
    17:00 +9°C° 1.9 mm 5 m/S 737 mmHg 98%
    18:00 +10°C° 1.9 mm 4 m/S 737 mmHg 98%
    19:00 +10°C° 1.9 mm 3 m/S 738 mmHg 98%
    20:00 +10°C° 0.2 mm 3 m/S 738 mmHg 98%
    21:00 +9°C° 0.2 mm 3 m/S 738 mmHg 97%
    22:00 +9°C° 0.2 mm 2 m/S 738 mmHg 97%
    23:00 +8°C° 0 mm 2 m/S 738 mmHg 97%

    20 Februar, Mittwoch

    Zeit Temperatur Niederschläge Wind Luftdruck Luftfeuchtigkeit
    00:00 +8°C° 0 mm 2 m/S 739 mmHg 96%
    01:00 +9°C° 0 mm 1 m/S 739 mmHg 96%
    02:00 +8°C° 0 mm 1 m/S 739 mmHg 96%
    03:00 +8°C° 0 mm 1 m/S 738 mmHg 96%
    04:00 +8°C° 0 mm 1 m/S 738 mmHg 96%
    05:00 +8°C° 0.1 mm 1 m/S 739 mmHg 95%
    06:00 +9°C° 0.1 mm 1 m/S 739 mmHg 94%
    07:00 +9°C° 0.1 mm 1 m/S 739 mmHg 93%
    08:00 +9°C° 0.1 mm 2 m/S 739 mmHg 83%
    09:00 +10°C° 0.1 mm 2 m/S 739 mmHg 74%
    10:00 +12°C° 0.1 mm 2 m/S 739 mmHg 64%
    11:00 +11°C° 0 mm 3 m/S 739 mmHg 63%
    12:00 +11°C° 0 mm 3 m/S 739 mmHg 62%
    13:00 +11°C° 0 mm 3 m/S 740 mmHg 61%
    14:00 +11°C° 0 mm 3 m/S 740 mmHg 63%
    15:00 +12°C° 0 mm 2 m/S 740 mmHg 65%
    16:00 +10°C° 0 mm 2 m/S 740 mmHg 67%
    17:00 +9°C° 0.2 mm 2 m/S 740 mmHg 75%
    18:00 +10°C° 0.2 mm 1 m/S 740 mmHg 83%
    19:00 +9°C° 0.2 mm 1 m/S 740 mmHg 91%
    20:00 +8°C° 0.2 mm 1 m/S 741 mmHg 92%
    21:00 +8°C° 0.2 mm 1 m/S 741 mmHg 94%
    22:00 +7°C° 0.2 mm 0 m/S 741 mmHg 95%
    23:00 +8°C° 0.2 mm 1 m/S 741 mmHg 96%

    21 Februar, Donnerstag

    Zeit Temperatur Niederschläge Wind Luftdruck Luftfeuchtigkeit
    00:00 +7°C° 0.2 mm 2 m/S 741 mmHg 96%
    01:00 +7°C° 0.2 mm 2 m/S 741 mmHg 96%
    02:00 +7°C° 0.4 mm 3 m/S 741 mmHg 97%
    03:00 +8°C° 0.4 mm 3 m/S 741 mmHg 97%
    04:00 +8°C° 0.4 mm 3 m/S 740 mmHg 97%
    05:00 +8°C° 0.7 mm 3 m/S 741 mmHg 97%
    06:00 +7°C° 0.7 mm 4 m/S 741 mmHg 97%
    07:00 +7°C° 0.7 mm 4 m/S 741 mmHg 97%
    08:00 +8°C° 1.3 mm 4 m/S 741 mmHg 97%
    09:00 +8°C° 1.3 mm 4 m/S 741 mmHg 97%
    10:00 +8°C° 1.3 mm 5 m/S 741 mmHg 97%
    11:00 +8°C° 0.9 mm 4 m/S 742 mmHg 97%
    12:00 +10°C° 0.9 mm 3 m/S 742 mmHg 96%
    13:00 +10°C° 0.9 mm 3 m/S 742 mmHg 95%
    14:00 +11°C° 0.1 mm 3 m/S 743 mmHg 83%
    15:00 +11°C° 0.1 mm 3 m/S 743 mmHg 72%
    16:00 +12°C° 0.1 mm 3 m/S 744 mmHg 60%
    17:00 +11°C° 0 mm 3 m/S 744 mmHg 63%
    18:00 +9°C° 0 mm 2 m/S 745 mmHg 66%
    19:00 +8°C° 0 mm 2 m/S 746 mmHg 69%
    20:00 +7°C° 0 mm 2 m/S 746 mmHg 75%
    21:00 +7°C° 0 mm 1 m/S 747 mmHg 81%
    22:00 +6°C° 0 mm 1 m/S 747 mmHg 87%
    23:00 +6°C° 0 mm 1 m/S 747 mmHg 88%

    22 Februar, Freitag

    Zeit Temperatur Niederschläge Wind Luftdruck Luftfeuchtigkeit
    00:00 +5°C° 0 mm 1 m/S 748 mmHg 89%
    01:00 +5°C° 0 mm 1 m/S 748 mmHg 89%
    02:00 +4°C° 0 mm 1 m/S 748 mmHg 89%
    03:00 +4°C° 0 mm 1 m/S 748 mmHg 89%
    04:00 +4°C° 0 mm 1 m/S 748 mmHg 89%
    05:00 +5°C° 0 mm 1 m/S 748 mmHg 82%
    06:00 +6°C° 0 mm 1 m/S 748 mmHg 76%
    07:00 +8°C° 0 mm 1 m/S 748 mmHg 70%
    08:00 +10°C° 0 mm 1 m/S 748 mmHg 59%
    09:00 +10°C° 0 mm 2 m/S 748 mmHg 49%
    10:00 +13°C° 0 mm 2 m/S 748 mmHg 38%
    11:00 +14°C° 0 mm 2 m/S 747 mmHg 37%
    12:00 +14°C° 0 mm 2 m/S 747 mmHg 37%
    13:00 +15°C° 0 mm 2 m/S 747 mmHg 36%
    14:00 +14°C° 0 mm 3 m/S 747 mmHg 39%
    15:00 +13°C° 0 mm 3 m/S 746 mmHg 42%
    16:00 +13°C° 0 mm 3 m/S 746 mmHg 46%
    17:00 +12°C° 0 mm 3 m/S 747 mmHg 54%
    18:00 +10°C° 0 mm 3 m/S 747 mmHg 62%
    19:00 +8°C° 0 mm 3 m/S 747 mmHg 70%
    20:00 +7°C° 0 mm 2 m/S 747 mmHg 77%
    21:00 +6°C° 0 mm 2 m/S 747 mmHg 84%
    22:00 +6°C° 0 mm 1 m/S 747 mmHg 91%
    23:00 +6°C° 0 mm 1 m/S 747 mmHg 90%
    Mehr zeigen